Wind_Speed
34 34 34 34 34 34 34 34 34 34 34 34 34 34 35 34 33 33 32 33 35 36 35 35 35 34 33 32 33 33 33 34 36 36 35 34 32 31 35 41 42 39 36 34 34 34 34 34 32 31 30 29 27 26 25 24 24 24 23 22 21 21 22 22 21 21 21 21 21 21 22 22 22 22
36 36 37 36 36 36 36 35 35 35 34 34 34 35 35 35 35 34 33 32 34 36 36 35 36 35 35 33 33 34 34 34 36 37 35 35 34 31 32 39 44 42 38 36 35 36 36 35 34 32 32 30 29 28 26 25 25 25 24 24 23 22 23 24 23 22 21 21 22 22 23 23 23 23
37 37 38 38 37 37 36 36 36 35 35 35 35 35 35 36 35 35 35 32 33 36 36 36 36 36 36 35 33 34 34 35 35 36 35 34 34 32 31 37 44 43 41 39 37 38 38 36 35 34 33 31 30 29 28 27 27 26 25 25 24 24 24 24 24 23 22 22 23 24 24 24 24 24
36 37 38 38 37 37 36 37 37 36 35 35 35 36 36 36 36 36 36 34 32 35 37 36 36 37 37 36 34 34 34 35 35 35 35 34 34 33 31 34 41 45 44 42 40 40 40 38 36 35 34 33 32 30 29 28 28 28 27 26 26 25 25 25 25 25 24 24 24 25 25 26 26 25
36 36 37 37 37 36 35 36 36 36 36 36 36 36 36 37 37 36 37 35 33 34 37 36 36 37 37 36 35 34 34 35 36 36 36 35 34 33 32 33 39 47 47 44 43 42 41 40 37 36 36 34 33 31 30 29 29 29 29 28 27 27 27 27 27 27 26 26 26 26 26 27 27 27
36 36 36 37 37 37 36 36 36 36 36 36 36 36 37 37 37 37 37 36 35 35 36 37 37 37 37 37 36 34 34 35 36 36 37 37 35 34 35 36 40 47 49 47 45 44 42 41 38 37 37 36 34 33 31 31 30 30 31 30 29 28 28 29 29 28 28 27 27 27 27 27 27 28
37 36 37 37 37 38 37 37 37 37 37 37 37 37 37 37 38 38 38 38 37 36 36 36 37 37 37 37 37 34 34 35 36 36 37 38 37 36 37 39 41 46 48 46 45 44 43 42 40 38 38 37 35 34 33 32 32 31 31 31 30 29 29 29 30 30 30 29 28 27 27 27 28 29
38 38 38 38 39 39 38 38 38 38 38 38 38 38 38 38 38 38 38 39 39 37 36 36 37 38 37 37 37 35 34 35 35 36 37 38 37 35 36 37 39 44 45 44 44 45 44 43 41 38 38 37 36 35 35 34 33 32 32 32 32 31 30 31 31 32 32 31 29 28 27 28 28 29
39 39 40 40 40 40 39 39 39 39 39 39 39 39 39 39 39 39 39 39 40 39 37 37 37 37 37 36 36 35 34 34 35 34 35 35 35 34 33 32 34 40 43 43 45 46 45 44 42 39 39 38 38 37 36 35 34 33 32 32 33 33 32 32 33 34 33 32 30 29 29 29 29 30
40 40 40 40 40 40 40 40 39 39 39 39 39 40 40 40 39 39 40 40 40 39 38 38 37 36 37 36 36 35 33 34 35 34 34 34 33 32 31 31 33 37 40 41 44 45 44 44 43 42 41 40 39 38 37 36 35 34 33 33 35 35 34 34 35 35 34 33 32 31 30 30 31 31
41 40 40 41 41 41 40 40 40 40 40 40 40 40 40 40 40 40 40 41 41 40 39 39 38 37 36 35 35 35 33 33 35 35 34 34 32 31 32 33 33 36 38 39 42 45 45 45 45 44 42 41 40 39 38 37 37 36 35 35 36 37 36 36 36 36 35 34 33 33 32 32 32 33
41 42 41 41 42 42 42 41 41 41 41 40 40 40 40 41 41 41 41 41 41 41 40 40 40 38 36 35 35 35 34 32 33 35 35 34 32 31 34 37 36 36 38 40 43 46 48 48 48 47 45 43 42 41 40 39 38 38 37 38 38 38 38 37 37 37 36 35 35 35 35 34 34 34
42 43 43 43 43 43 43 43 42 42 42 41 41 41 41 42 42 41 42 41 41 42 41 40 40 39 37 35 35 35 34 31 32 35 35 34 33 32 34 39 42 40 39 41 43 46 47 48 49 48 46 44 42 41 40 40 39 39 39 40 40 39 38 38 38 38 37 37 37 37 37 37 36 36
43 44 44 45 45 45 44 44 44 43 43 42 42 41 42 42 42 42 42 42 41 41 41 41 41 40 38 36 36 36 35 32 31 33 35 35 36 35 34 39 45 44 41 42 43 43 44 46 47 47 45 43 42 42 42 41 39 39 40 40 40 39 39 39 39 40 40 39 39 40 39 39 38 38
46 46 46 46 47 47 47 47 46 45 44 44 43 42 42 42 43 43 43 42 42 42 42 41 42 41 39 37 37 36 36 35 32 32 35 36 36 36 35 37 44 45 41 41 42 41 42 43 45 46 44 43 44 44 44 43 40 40 41 41 40 40 40 40 41 42 42 41 41 42 41 41 41 40
47 48 48 48 48 49 49 49 49 48 47 46 45 44 44 43 43 43 43 43 42 42 42 41 42 42 40 38 37 37 36 35 33 31 33 35 36 35 34 34 40 43 41 41 41 40 40 41 43 45 45 45 46 47 47 45 41 40 42 41 41 41 41 41 42 43 43 43 43 43 43 43 43 43
48 49 49 49 49 49 50 50 50 50 49 49 48 47 46 45 45 44 43 43 42 42 41 42 42 43 42 39 38 38 36 34 34 32 31 33 35 34 31 30 36 42 41 40 40 40 41 42 43 45 47 48 48 48 47 45 42 41 42 42 42 43 43 43 44 45 45 45 45 45 45 45 45 45
49 49 49 50 50 50 50 50 50 50 50 50 50 49 48 48 47 46 44 43 43 42 41 41 42 42 43 41 39 40 38 35 34 33 32 32 33 34 34 31 34 40 43 41 41 41 42 44 45 46 47 48 47 46 46 44 42 41 42 43 44 45 46 46 47 48 47 47 47 46 46 47 47 47
49 50 50 50 51 51 50 50 51 51 51 51 51 50 49 49 48 47 45 44 44 43 41 41 41 42 43 42 41 41 39 36 33 33 33 32 31 33 37 37 34 36 41 44 44 42 42 43 44 45 45 45 46 45 45 45 43 42 43 46 47 47 48 49 51 51 50 49 49 49 49 49 49 49
50 51 51 52 52 52 52 52 52 52 52 52 51 51 50 49 48 47 46 45 44 43 42 41 41 41 42 42 42 41 41 37 34 33 33 33 32 32 35 39 37 33 37 43 45 44 43 43 43 44 44 44 45 46 45 45 45 45 48 50 51 51 51 53 54 53 52 52 51 51 51 52 52 53
50 51 51 52 52 53 53 53 53 52 52 52 51 51 50 49 48 46 45 45 44 43 42 41 41 42 42 42 42 42 42 39 35 33 33 34 33 32 33 37 40 36 36 42 46 46 45 44 44 44 44 45 46 47 48 48 47 47 51 55 55 54 55 56 57 56 55 55 54 54 54 55 55 56
49 50 50 51 51 51 51 52 52 52 52 51 51 51 50 48 47 46 45 45 44 43 42 41 41 41 41 42 41 42 42 40 36 34 33 34 35 34 32 33 40 42 39 40 43 46 46 45 44 44 44 47 49 49 47 47 47 48 52 57 58 57 58 58 59 59 58 58 58 58 57 57 58 59
47 48 49 49 50 50 49 48 47 47 48 48 49 49 48 46 46 45 45 44 43 43 42 41 40 40 40 41 41 41 42 41 38 35 33 34 35 36 35 32 35 42 42 38 37 40 43 44 45 45 45 47 50 49 45 46 51 53 54 56 59 60 62 61 61 61 61 61 61 61 60 60 60 60
45 45 45 45 45 45 44 42 41 41 41 41 43 44 44 44 44 43 44 43 43 42 41 40 39 39 39 40 40 40 41 40 38 36 34 34 35 36 36 35 32 36 41 40 38 39 41 43 45 47 48 48 49 49 46 50 57 60 58 58 61 62 63 64 65 65 64 64 64 64 63 62 61 59
42 42 41 40 38 37 36 34 33 32 31 31 33 36 37 39 40 41 41 42 41 41 40 39 38 38 38 39 38 39 39 39 38 36 34 34 35 35 36 36 34 32 35 39 41 41 42 43 44 46 49 50 50 51 52 54 60 64 62 61 62 62 64 65 67 67 66 65 65 64 63 61 60 59
40 40 38 36 33 31 29 26 24 23 23 23 25 27 29 32 35 36 38 38 39 39 38 38 37 37 37 37 37 37 37 38 38 36 34 34 34 35 36 36 36 34 33 35 40 43 44 44 45 46 48 50 52 54 54 53 57 62 63 61 59 60 64 67 68 67 66 64 62 62 61 61 61 60
40 39 37 33 30 27 23 19 17 17 18 20 21 22 23 25 27 30 33 34 35 35 36 35 35 35 35 36 36 36 36 37 37 36 34 33 33 34 35 36 36 35 33 33 35 41 44 44 45 46 47 49 51 51 50 49 53 58 59 57 54 55 59 64 67 68 65 63 63 62 62 63 63 61
39 39 36 32 28 25 21 17 15 14 14 15 17 19 20 21 22 24 26 28 30 31 32 32 33 33 33 33 34 35 35 35 36 36 34 32 31 32 34 35 35 34 34 33 33 37 42 43 43 43 43 43 44 44 44 48 53 56 56 54 52 52 54 59 64 68 66 65 65 65 65 65 63 60
36 36 35 32 28 25 22 18 18 17 15 14 14 15 16 17 18 19 20 22 24 25 27 28 29 30 30 30 31 32 33 33 33 34 33 31 29 30 32 34 34 34 34 34 34 37 40 41 41 41 39 38 38 38 40 44 48 48 46 44 46 49 53 55 59 63 65 66 67 68 67 65 61 59
31 32 32 31 28 24 21 18 18 18 18 16 14 14 15 15 14 14 16 17 18 19 21 23 24 25 26 27 27 28 29 29 29 30 30 30 29 29 30 31 31 33 34 34 34 37 39 40 40 40 40 39 38 38 38 39 39 37 36 39 45 50 53 54 55 59 63 67 68 68 65 62 59 58
28 28 30 31 31 28 24 19 17 16 16 15 15 15 15 14 13 11 12 13 13 13 15 17 18 20 22 23 24 25 26 27 26 26 26 26 25 25 27 27 27 29 30 31 32 35 37 40 42 43 43 41 39 37 35 34 33 32 33 39 47 51 53 54 56 57 60 63 63 61 60 58 57 57
26 28 29 30 32 32 31 27 21 17 15 14 13 12 12 11 11 10 9 9 10 10 11 13 14 15 17 19 21 22 24 25 25 24 24 24 23 23 24 25 26 27 27 28 29 30 32 35 38 40 39 36 34 31 29 28 29 29 30 34 39 44 48 51 54 56 58 59 59 59 58 57 55 54
26 28 29 29 29 30 30 30 28 23 18 15 14 13 11 9 9 8 8 7 8 8 10 11 12 13 15 16 17 19 20 22 23 23 23 23 24 23 23 23 24 24 26 27 27 27 28 30 31 31 29 27 26 27 28 27 28 28 30 33 37 41 45 48 51 53 55 56 56 56 54 51 49 48
27 27 28 28 28 28 28 28 29 28 26 22 17 15 13 11 10 9 8 7 6 7 8 9 10 12 13 14 15 16 17 19 20 21 21 21 21 22 22 22 22 21 22 24 25 25 25 25 25 23 22 22 24 26 28 28 29 31 34 37 39 42 45 46 47 48 47 46 46 46 45 44 43 43
26 27 27 26 26 26 26 26 26 27 28 27 25 22 19 15 12 11 10 8 7 7 7 7 8 9 11 12 13 15 16 17 18 19 20 20 19 19 19 19 19 19 19 19 19 18 18 17 17 17 18 19 23 26 28 30 32 34 36 37 37 38 38 39 38 38 37 37 38 38 39 40 41 42
25 25 25 25 25 25 25 25 25 25 25 26 26 26 25 23 19 16 12 10 8 8 8 8 8 8 9 10 11 12 14 15 16 17 18 19 19 19 19 17 16 14 13 13 13 13 13 14 15 16 17 18 20 23 25 27 28 29 29 29 29 29 30 31 31 32 33 35 36 37 38 39 40 41
24 24 24 24 24 24 24 24 23 23 23 23 23 23 23 23 23 22 20 17 14 11 8 7 8 9 9 10 10 11 11 12 13 14 15 16 17 18 18 18 16 13 11 11 11 11 12 14 15 17 18 19 20 21 21 22 23 23 24 24 25 26 27 29 30 31 32 33 34 35 35 36 37 37
22 23 23 23 24 24 24 24 23 22 22 22 22 21 22 22 22 22 23 22 21 19 16 13 10 8 7 8 9 10 10 11 11 12 12 13 14 15 16 16 17 16 15 15 15 15 14 15 15 16 17 18 19 20 20 21 22 22 23 24 25 26 27 29 30 31 32 33 33 34 35 36 37 38
21 22 22 23 23 24 24 23 23 22 22 21 21 20 20 21 21 21 21 20 20 20 20 19 18 15 13 11 9 8 7 8 8 9 10 11 11 12 13 13 14 14 15 16 18 19 20 20 21 21 21 21 21 22 22 22 23 23 24 25 26 27 28 29 30 30 31 32 33 34 35 36 37 38
20 20 21 22 23 23 23 23 23 22 22 21 21 20 20 19 19 19 19 19 19 19 19 19 19 18 18 17 16 14 13 11 10 9 8 8 8 9 9 10 11 11 12 12 14 16 18 21 22 23 24 25 26 26 26 27 27 27 28 28 29 29 30 30 31 31 32 33 34 35 36 37 38 39
19 19 20 22 22 23 23 23 22 22 22 22 21 20 20 19 19 18 18 18 18 18 18 18 18 17 17 17 17 17 16 16 15 14 13 12 11 10 9 8 8 8 8 8 8 9 11 13 16 19 21 22 24 25 26 27 27 28 29 29 30 31 32 33 34 35 36 37 38 39 40 41 42 42
18 18 19 21 22 22 22 22 22 22 22 22 21 21 20 19 19 18 18 17 17 17 17 17 16 16 16 16 16 16 16 16 15 15 15 15 14 14 13 12 12 11 10 10 10 9 8 7 7 9 11 13 15 18 20 21 23 24 26 27 28 29 30 32 33 34 35 37 38 38 39 39 40 40
16 17 19 20 21 21 22 22 22 22 22 22 22 22 21 21 20 19 19 18 17 17 16 16 15 15 15 15 15 15 15 15 15 15 14 14 14 14 14 14 13 13 13 12 12 12 12 11 10 9 7 7 7 9 10 12 14 16 17 19 20 21 23 24 25 26 28 29 29 30 31 31 32 33
16 16 18 19 20 20 21 21 22 22 22 22 22 23 23 22 22 21 20 19 18 18 17 16 16 15 15 14 14 14 14 14 14 14 14 14 14 14 14 14 13 13 13 13 13 13 13 12 12 12 11 11 10 9 9 9 9 10 11 12 13 14 15 16 17 18 19 20 21 22 23 24 25 26
16 16 17 18 18 19 20 20 21 21 21 22 22 22 22 22 22 22 22 21 20 19 18 18 17 17 16 15 15 14 14 14 14 14 14 14 14 14 14 14 14 14 14 14 13 13 13 13 13 13 14 14 14 13 13 13 13 12 12 12 12 13 13 13 14 14 15 16 16 17 18 18 19 20
Wind_Direction
292 292 292 292 292 292 292 293 293 293 294 296 296 297 299 300 301 301 302 304 303 302 302 303 303 303 299 288 275 269 266 264 263 262 262 263 266 266 255 246 243 244 244 243 243 244 244 243 241 240 241 242 243 244 245 246 247 248 249 249 249 250 251 251 249 248 248 247 245 244 243 242 242 242
292 292 292 292 292 292 292 292 292 292 293 293 294 295 296 297 299 299 300 302 302 300 301 302 301 301 301 293 280 270 265 263 262 262 262 262 262 263 258 245 240 242 242 241 242 244 244 244 242 240 241 241 242 243 243 245 246 248 248 249 249 250 252 251 249 246 247 249 250 250 249 248 246 245
290 290 291 291 291 291 292 292 292 292 292 292 292 292 293 294 295 296 297 300 301 299 299 299 299 300 301 297 285 273 266 262 262 260 259 260 258 257 257 248 239 239 241 241 242 243 243 243 241 240 241 241 242 242 242 243 245 246 247 248 249 250 251 249 246 245 247 251 253 253 253 253 252 249
289 289 289 290 290 291 291 292 292 292 291 291 291 291 292 292 293 294 295 297 298 298 297 297 298 298 300 299 289 275 267 262 260 258 256 257 256 253 255 253 243 238 238 240 241 242 242 241 239 239 240 241 242 242 242 242 243 245 246 247 248 249 248 246 245 247 251 253 253 253 254 254 254 253
290 290 289 290 290 291 291 291 291 292 291 291 291 291 290 290 291 291 292 293 294 295 295 295 296 297 298 299 292 277 266 261 258 257 254 253 254 253 252 253 246 238 235 237 240 241 240 238 237 237 239 241 242 243 243 243 243 245 246 246 247 248 248 246 246 249 253 253 253 253 253 254 254 255
290 290 290 290 290 291 291 291 291 291 291 291 290 289 289 289 289 289 290 291 292 292 293 293 294 295 296 299 295 280 265 260 257 256 253 251 253 256 254 252 247 240 236 237 238 239 239 238 235 236 238 240 242 243 244 243 243 244 246 246 246 247 248 248 249 251 253 254 254 255 254 254 254 255
289 288 288 288 288 289 289 289 290 290 290 289 289 288 288 287 287 288 288 289 289 289 291 293 292 293 295 298 297 284 267 259 256 255 253 251 251 256 257 253 246 238 235 235 236 238 239 238 235 234 237 239 241 243 244 244 243 244 246 247 247 246 246 246 249 252 253 253 254 256 257 257 256 256
287 287 286 286 286 287 287 287 288 288 288 288 287 287 286 286 286 286 286 287 287 287 289 291 291 291 293 295 296 288 271 260 257 255 253 251 251 255 257 252 242 233 229 231 235 237 239 239 237 235 236 238 239 241 243 243 244 244 245 247 248 247 246 246 249 251 253 255 256 257 258 258 258 258
286 285 285 285 285 285 285 286 286 286 286 286 286 286 285 284 284 284 284 284 284 285 286 287 288 289 290 292 294 291 277 264 259 256 253 251 251 255 255 247 236 229 228 230 233 236 237 238 239 237 235 237 238 240 242 244 244 245 245 247 248 247 247 248 249 252 253 255 256 257 257 257 258 258
285 285 285 285 285 285 284 284 284 284 284 283 284 284 283 283 282 282 282 282 282 283 283 284 285 286 288 290 293 292 281 265 259 257 254 250 252 256 253 242 232 230 231 231 233 236 237 238 240 241 240 239 239 239 241 243 244 244 244 244 245 246 248 249 250 252 253 254 255 256 257 257 257 258
285 285 285 285 284 284 283 283 283 282 282 281 281 281 281 281 280 280 280 280 280 281 281 281 283 284 286 288 290 292 283 268 259 258 255 250 253 258 252 241 234 234 234 233 232 234 237 239 242 243 240 238 239 239 240 242 243 244 244 243 244 247 249 250 251 253 254 254 254 255 256 257 257 257
286 285 285 284 283 283 282 281 281 280 279 279 278 278 278 278 277 277 277 277 278 278 278 279 281 282 284 285 287 289 285 271 259 257 255 250 253 259 252 240 236 235 235 234 233 233 236 240 241 240 239 238 238 238 239 241 242 244 244 244 246 248 249 251 252 254 255 254 253 254 255 256 256 257
287 287 286 285 284 283 282 281 279 278 278 277 276 275 275 275 275 275 275 275 276 276 276 277 278 280 281 282 283 285 284 275 263 258 257 252 253 259 255 243 236 235 234 234 234 234 235 238 237 238 239 240 240 239 240 241 242 244 244 245 246 248 250 252 253 254 255 255 254 254 255 255 256 257
290 289 288 287 286 285 283 282 280 279 278 277 275 274 273 273 273 273 273 273 274 274 274 275 276 277 278 279 279 281 282 278 268 260 258 255 252 257 261 250 239 236 235 234 235 236 236 237 237 238 239 240 241 242 241 241 243 244 244 243 244 247 250 252 254 254 255 255 255 256 256 257 257 258
291 290 288 287 286 285 284 283 282 280 278 277 276 275 273 272 271 271 271 271 271 272 272 273 274 275 275 276 276 278 280 280 274 262 257 257 253 255 263 255 239 235 235 234 235 237 237 238 239 240 240 240 242 244 243 242 242 244 244 243 243 246 249 252 253 254 255 255 256 257 257 258 258 258
292 290 289 287 285 284 283 282 281 279 278 277 276 275 274 272 272 270 270 269 269 269 270 270 272 272 273 273 274 275 277 279 278 269 260 258 255 254 263 257 237 231 234 233 234 236 238 240 241 241 242 242 241 243 244 243 242 243 244 245 246 247 249 251 253 254 255 256 256 257 258 258 258 258
292 291 289 288 286 284 282 281 279 277 276 275 274 273 272 271 271 270 270 269 268 267 267 267 269 270 271 272 272 273 274 275 278 276 267 261 255 252 260 256 239 233 234 234 234 235 236 239 240 239 240 241 240 241 244 244 243 243 246 248 249 250 251 252 254 256 256 257 257 258 258 258 259 259
293 291 290 288 286 284 282 280 279 277 275 273 271 270 269 269 269 269 270 270 269 267 266 265 266 268 270 271 270 271 273 273 274 275 273 267 258 251 252 251 241 237 237 235 235 236 236 238 239 239 239 240 243 243 244 246 245 246 249 250 250 251 254 256 257 258 259 259 259 259 259 259 260 260
295 293 291 289 286 284 281 279 277 275 274 272 271 269 268 267 267 267 268 269 269 268 266 264 264 265 267 269 270 270 272 272 272 272 273 272 265 256 251 246 242 241 240 237 237 238 239 240 241 242 243 244 244 243 242 244 247 248 249 250 249 250 253 256 258 260 260 260 260 260 260 261 261 260
296 294 291 289 286 284 281 278 275 273 272 271 270 269 267 266 265 265 266 267 267 267 267 265 263 263 264 265 267 269 270 271 271 270 270 271 270 266 257 246 241 243 241 235 235 238 240 242 243 243 243 243 243 241 239 240 243 245 247 248 248 249 253 257 260 261 260 261 260 260 261 262 261 260
298 296 293 291 288 285 282 279 276 273 270 269 267 267 266 266 265 264 264 264 264 265 265 264 263 263 263 264 265 267 269 270 270 269 269 269 268 271 266 249 238 239 239 234 233 235 237 238 240 240 240 240 240 239 237 237 239 242 245 245 245 247 252 257 260 262 261 261 260 260 261 261 261 260
303 301 298 295 291 287 284 281 278 274 271 268 266 265 264 264 263 262 262 262 262 262 262 263 263 263 263 263 264 265 267 269 269 267 267 268 267 270 271 253 234 233 238 236 234 236 237 236 236 237 238 238 237 236 237 240 242 241 242 243 243 245 249 253 257 260 262 261 260 259 259 260 260 260
309 307 303 300 295 291 287 283 280 276 272 269 266 264 263 262 261 260 260 260 260 260 260 261 261 261 262 263 263 264 266 267 268 267 266 268 269 269 273 265 241 231 233 235 234 236 238 237 235 235 235 236 237 236 235 239 243 242 242 243 244 245 248 252 256 258 260 260 260 260 259 259 259 258
316 314 310 305 300 295 292 288 284 280 276 272 269 266 263 261 259 258 258 258 259 259 260 260 260 259 259 261 261 262 264 266 268 268 266 267 269 269 272 273 260 241 233 232 232 235 237 237 235 235 234 235 237 237 232 233 239 242 243 243 245 247 249 252 254 255 256 257 258 259 259 258 258 257
325 323 318 312 307 302 299 296 293 288 283 278 274 271 266 262 258 256 257 257 258 259 259 260 260 259 259 259 260 260 262 264 267 268 268 267 268 268 269 270 269 259 246 239 237 237 239 239 237 236 235 234 235 236 234 232 236 242 245 246 247 248 249 251 251 252 253 253 255 256 258 257 257 257
335 334 328 321 316 313 310 307 303 297 291 287 285 281 275 268 261 257 256 256 257 258 259 260 260 260 260 260 261 261 261 263 266 269 270 268 267 267 267 268 268 265 260 252 244 241 242 241 240 239 237 235 235 236 237 238 241 246 249 251 251 251 250 249 249 249 249 250 252 255 256 255 255 257
343 343 338 332 327 325 320 315 313 307 299 295 294 291 287 280 270 262 258 257 258 259 260 261 261 261 261 261 262 263 262 263 266 269 271 270 268 266 266 266 266 265 264 261 252 245 242 240 241 241 239 238 239 239 241 246 250 252 252 252 253 254 253 251 249 248 249 250 252 254 254 253 254 257
350 351 348 342 337 334 328 316 310 311 309 304 300 297 295 290 281 271 264 261 261 261 262 262 262 262 262 263 264 265 265 264 265 268 270 270 268 265 264 264 265 263 260 260 256 250 245 241 240 242 242 242 243 243 243 245 249 251 250 250 253 255 255 254 251 249 249 250 251 251 251 252 254 258
355 357 357 353 344 337 330 320 311 310 311 312 312 311 307 299 290 283 275 268 265 264 264 265 265 264 265 265 265 266 267 267 266 268 270 269 266 263 262 263 263 260 259 258 256 252 248 244 241 242 244 245 244 243 241 241 244 247 248 250 254 254 253 253 253 251 250 251 251 251 250 251 255 259
358 1 5 5 358 346 334 323 317 313 310 309 309 312 314 310 302 294 284 276 271 267 266 266 267 267 267 267 267 267 268 269 269 268 269 270 268 263 260 260 259 258 258 260 257 251 248 246 244 244 246 247 243 240 239 239 240 241 245 250 253 253 252 253 253 252 252 252 252 251 251 253 256 259
358 2 8 13 13 9 359 345 331 321 317 314 307 304 307 308 304 295 284 277 274 271 268 267 268 268 268 268 268 268 268 269 270 269 269 270 271 268 264 262 261 258 258 261 259 252 246 246 246 246 245 244 240 237 236 236 236 235 238 243 246 248 250 252 252 251 250 250 251 253 255 258 259 258
358 4 9 14 17 18 16 10 359 342 327 319 314 311 309 306 301 294 283 277 275 273 271 270 269 269 269 268 267 267 268 269 270 269 268 268 269 270 270 268 265 262 261 261 260 253 246 243 243 244 242 241 240 240 240 239 237 236 237 239 241 244 247 249 250 250 250 252 256 259 262 261 259 258
2 7 10 13 16 18 19 20 18 11 357 339 325 318 316 313 309 304 295 287 280 273 269 268 267 267 268 268 268 267 267 269 269 269 270 269 269 271 273 273 269 264 258 255 252 249 244 240 239 239 240 242 244 246 246 244 242 240 239 239 240 242 244 247 249 252 254 257 260 261 260 259 257 258
6 9 10 10 12 14 17 20 22 23 21 15 3 346 331 320 314 309 305 300 292 282 274 269 266 266 267 267 268 269 268 269 269 269 269 270 270 272 274 275 276 272 263 254 247 243 242 241 240 241 243 244 245 246 248 249 249 248 247 246 246 247 249 251 253 254 256 257 257 257 257 258 260 262
10 11 9 8 9 10 13 16 19 22 25 25 25 21 13 360 344 329 315 306 298 291 287 281 274 271 268 267 267 269 270 271 272 272 270 268 269 271 273 275 278 278 274 265 253 246 244 246 247 250 251 250 248 249 250 251 252 252 253 253 254 254 255 256 256 257 257 258 259 260 262 264 265 267
10 10 9 8 8 8 10 12 15 19 21 24 26 28 28 26 22 14 359 341 323 307 296 290 286 281 277 274 271 272 273 275 275 275 274 272 271 272 274 278 281 282 277 269 259 251 248 249 251 251 251 249 248 249 251 252 254 255 257 258 260 261 261 261 260 260 261 262 264 265 266 266 268 269
7 8 8 8 8 8 9 10 12 15 18 21 23 25 27 29 30 31 29 25 18 6 343 318 301 290 284 281 279 278 277 278 278 278 278 277 275 275 276 278 281 283 279 271 263 256 253 252 251 250 250 249 247 247 247 248 249 251 253 254 255 255 256 256 257 259 260 262 263 265 266 268 270 272
4 5 7 7 7 8 8 9 10 11 13 17 20 22 24 26 28 30 32 32 32 31 28 22 9 348 323 306 296 290 285 283 283 283 282 280 279 279 279 278 277 276 273 271 268 265 262 259 256 254 253 253 251 250 250 250 250 250 251 252 252 253 254 256 259 261 263 265 267 269 271 273 274 276
2 4 5 5 6 7 7 8 8 9 10 12 14 16 19 22 25 28 29 29 30 32 33 33 33 30 26 19 5 347 329 314 305 298 293 289 286 283 281 280 279 276 272 269 267 267 267 266 265 264 263 263 262 261 261 262 263 263 263 264 265 266 267 268 269 271 272 273 274 276 276 277 278 279
360 2 4 4 5 5 6 7 7 8 9 9 10 11 13 16 20 23 25 26 28 29 30 31 31 32 32 32 31 28 25 19 11 360 345 330 317 307 298 292 289 286 283 277 271 268 267 267 268 270 270 270 271 272 272 273 273 274 274 274 275 275 276 277 277 278 278 278 279 279 279 279 279 280
358 1 3 4 5 5 6 7 7 8 9 9 8 8 9 10 12 15 17 20 24 25 27 27 28 28 28 29 29 29 30 30 29 27 24 20 13 5 357 346 333 324 317 311 302 289 279 273 271 273 274 275 276 277 278 279 279 279 278 278 277 277 277 277 276 276 276 277 277 277 278 278 279 279
357 360 2 4 5 6 7 8 9 9 9 9 9 9 8 8 8 8 10 12 15 18 21 22 23 24 24 25 25 25 25 26 27 26 26 26 25 22 20 17 13 8 3 359 356 354 348 333 310 295 288 284 283 283 283 283 283 282 281 280 279 278 277 277 277 277 277 277 277 278 279 279 280 281
355 358 1 3 5 7 8 10 11 11 11 11 11 10 10 9 8 7 6 6 6 8 10 12 14 16 17 19 19 19 20 20 20 20 20 20 20 19 19 18 16 15 12 10 8 7 6 6 4 359 350 336 322 310 302 298 296 293 292 290 289 288 287 286 285 285 284 284 285 285 285 286 286 286
354 356 359 1 3 5 7 9 10 11 12 13 13 13 12 11 10 8 7 5 3 2 2 1 2 4 5 6 7 9 10 11 10 10 11 11 10 10 10 10 9 8 6 4 2 0 358 357 356 355 353 351 348 344 338 333 327 322 318 316 313 310 308 306 305 303 302 301 300 299 298 297 297 296
351 353 354 357 358 0 2 3 5 7 9 10 11 12 13 12 12 10 9 7 5 3 0 358 357 356 355 355 356 356 357 358 358 358 358 359 359 359 359 359 358 358 356 355 354 353 350 348 346 344 342 341 340 338 336 335 334 332 330 329 327 325 324 323 321 320 318 316 315 313 311 309 307 304
Height
5779 5778 5777 5776 5775 5774 5773 5772 5770 5769 5768 5766 5765 5763 5762 5761 5760 5759 5758 5757 5753 5750 5749 5748 5746 5744 5742 5742 5742 5742 5742 5742 5741 5742 5742 5743 5744 5745 5745 5746 5746 5747 5749 5751 5752 5754 5755 5757 5759 5760 5761 5762 5764 5765 5766 5767 5768 5769 5769 5770 5770 5771 5771 5772 5772 5773 5774 5775 5775 5776 5776 5776 5777 5778
5776 5774 5773 5772 5771 5770 5769 5768 5766 5765 5764 5762 5761 5759 5758 5756 5756 5755 5754 5754 5751 5747 5746 5744 5742 5740 5739 5737 5737 5737 5738 5738 5737 5737 5738 5739 5740 5741 5741 5741 5742 5743 5744 5746 5748 5749 5751 5753 5755 5756 5757 5758 5760 5761 5762 5763 5764 5765 5766 5767 5767 5768 5768 5769 5769 5770 5770 5771 5772 5773 5773 5774 5775 5775
5772 5770 5769 5768 5767 5766 5765 5763 5762 5761 5759 5758 5756 5755 5754 5752 5752 5750 5749 5750 5748 5743 5742 5741 5738 5737 5735 5733 5732 5732 5733 5733 5733 5733 5734 5735 5736 5736 5736 5736 5738 5739 5740 5741 5743 5744 5746 5749 5751 5752 5752 5754 5756 5757 5758 5759 5761 5762 5763 5764 5764 5765 5765 5766 5766 5767 5767 5768 5769 5770 5770 5771 5772 5772
5768 5766 5764 5763 5762 5761 5760 5758 5757 5756 5755 5753 5752 5750 5749 5748 5747 5746 5744 5745 5744 5740 5737 5737 5735 5733 5731 5729 5728 5727 5728 5728 5728 5728 5729 5730 5731 5732 5732 5732 5733 5735 5735 5736 5738 5740 5741 5744 5746 5747 5748 5750 5751 5753 5754 5755 5757 5758 5759 5760 5761 5762 5762 5763 5763 5764 5764 5765 5766 5766 5767 5768 5768 5769
5763 5762 5760 5758 5757 5757 5756 5754 5752 5751 5750 5748 5747 5746 5745 5743 5742 5742 5740 5740 5740 5737 5733 5732 5731 5729 5727 5725 5723 5723 5723 5723 5723 5724 5724 5725 5726 5726 5728 5728 5729 5730 5731 5732 5733 5735 5737 5739 5741 5743 5744 5745 5747 5749 5751 5752 5753 5754 5755 5756 5757 5758 5759 5760 5760 5761 5761 5761 5762 5763 5764 5764 5765 5765
5758 5757 5756 5754 5752 5751 5751 5749 5747 5746 5745 5743 5742 5741 5740 5739 5737 5736 5735 5734 5734 5733 5730 5728 5727 5725 5723 5721 5719 5718 5718 5718 5718 5718 5719 5720 5721 5722 5722 5724 5724 5725 5726 5728 5729 5731 5732 5734 5736 5738 5739 5741 5743 5745 5746 5747 5748 5750 5751 5752 5753 5755 5756 5757 5757 5757 5758 5758 5759 5759 5760 5761 5761 5762
5754 5752 5751 5749 5748 5746 5745 5744 5742 5741 5740 5738 5737 5736 5735 5734 5733 5731 5730 5729 5729 5728 5726 5724 5722 5720 5719 5717 5714 5713 5713 5713 5713 5714 5714 5715 5716 5717 5717 5718 5718 5719 5721 5723 5724 5726 5728 5729 5731 5733 5735 5737 5738 5740 5742 5743 5744 5745 5747 5748 5749 5751 5752 5753 5754 5754 5754 5755 5755 5756 5757 5757 5757 5758
5749 5747 5746 5744 5743 5741 5740 5738 5737 5736 5734 5733 5732 5731 5730 5729 5728 5727 5726 5724 5723 5723 5722 5720 5718 5716 5715 5713 5710 5708 5708 5708 5709 5709 5709 5709 5711 5712 5711 5711 5712 5714 5717 5718 5720 5722 5724 5725 5727 5728 5730 5732 5734 5736 5737 5738 5739 5741 5742 5743 5744 5746 5748 5749 5750 5750 5750 5751 5752 5752 5753 5753 5754 5754
5743 5742 5740 5739 5737 5736 5734 5733 5731 5730 5729 5727 5726 5725 5724 5723 5723 5722 5721 5719 5717 5717 5717 5716 5714 5712 5710 5709 5707 5704 5703 5704 5704 5705 5705 5705 5706 5707 5706 5706 5707 5709 5712 5714 5715 5717 5719 5720 5722 5723 5725 5727 5729 5731 5732 5733 5735 5736 5738 5739 5739 5741 5743 5744 5745 5745 5746 5747 5748 5748 5749 5749 5749 5749
5738 5736 5734 5733 5731 5730 5728 5727 5726 5724 5723 5722 5721 5720 5719 5718 5717 5716 5715 5714 5712 5712 5712 5711 5709 5708 5706 5704 5703 5700 5699 5699 5699 5700 5700 5700 5701 5702 5702 5703 5704 5706 5708 5710 5712 5713 5714 5716 5717 5719 5721 5722 5724 5726 5727 5729 5730 5732 5734 5735 5735 5736 5738 5739 5740 5740 5741 5743 5743 5744 5744 5745 5745 5745
5732 5730 5728 5727 5725 5724 5722 5721 5720 5718 5717 5716 5715 5714 5713 5712 5711 5710 5710 5708 5707 5706 5706 5705 5704 5703 5702 5700 5698 5696 5694 5694 5694 5695 5695 5696 5697 5697 5698 5699 5700 5702 5704 5706 5708 5709 5710 5711 5712 5714 5716 5718 5719 5720 5722 5724 5726 5727 5730 5731 5731 5732 5733 5734 5735 5736 5737 5738 5739 5739 5740 5740 5740 5741
5725 5724 5722 5721 5719 5717 5716 5715 5714 5712 5711 5710 5709 5708 5707 5706 5705 5704 5704 5703 5702 5701 5701 5700 5699 5698 5697 5696 5694 5692 5690 5690 5690 5689 5690 5691 5692 5692 5693 5694 5696 5698 5700 5702 5703 5704 5705 5705 5706 5707 5709 5712 5714 5715 5717 5719 5721 5723 5725 5726 5727 5728 5729 5730 5730 5731 5732 5733 5734 5734 5735 5735 5735 5736
5719 5717 5715 5714 5713 5711 5710 5708 5707 5705 5704 5703 5702 5701 5700 5699 5698 5698 5697 5697 5696 5695 5695 5695 5694 5693 5693 5691 5690 5688 5686 5685 5685 5685 5685 5686 5687 5687 5688 5689 5691 5693 5695 5697 5698 5699 5700 5701 5701 5702 5704 5706 5708 5710 5712 5714 5716 5718 5719 5721 5722 5723 5724 5725 5726 5726 5727 5728 5729 5729 5729 5730 5730 5731
5713 5711 5709 5707 5705 5704 5702 5701 5700 5698 5697 5696 5696 5695 5694 5693 5692 5691 5691 5690 5690 5689 5689 5689 5688 5687 5687 5687 5685 5684 5682 5681 5681 5681 5681 5681 5681 5681 5683 5684 5685 5687 5690 5691 5693 5694 5696 5697 5697 5698 5700 5702 5704 5705 5707 5709 5711 5712 5714 5715 5716 5718 5719 5720 5720 5721 5722 5723 5723 5724 5724 5725 5725 5726
5706 5704 5702 5700 5698 5696 5695 5693 5692 5691 5690 5689 5689 5688 5688 5687 5686 5685 5685 5684 5684 5683 5683 5683 5682 5681 5682 5682 5680 5679 5678 5677 5676 5676 5675 5675 5676 5676 5677 5678 5679 5682 5684 5686 5688 5690 5691 5692 5693 5694 5696 5698 5699 5700 5701 5704 5706 5707 5708 5709 5711 5712 5713 5714 5715 5716 5716 5717 5718 5718 5719 5720 5720 5720
5699 5697 5695 5693 5691 5689 5687 5685 5684 5683 5682 5681 5681 5680 5680 5680 5679 5679 5678 5678 5678 5677 5677 5677 5676 5675 5676 5676 5675 5674 5673 5672 5671 5671 5670 5670 5671 5671 5672 5672 5673 5677 5679 5681 5683 5685 5687 5688 5689 5690 5691 5693 5694 5695 5696 5698 5700 5702 5703 5704 5706 5707 5707 5708 5709 5709 5711 5711 5712 5713 5713 5714 5714 5714
5691 5689 5687 5685 5683 5681 5679 5677 5676 5675 5673 5673 5672 5672 5671 5672 5672 5671 5671 5671 5671 5671 5671 5671 5670 5669 5669 5671 5670 5669 5668 5668 5667 5666 5665 5665 5666 5666 5668 5668 5669 5672 5674 5675 5677 5679 5682 5683 5684 5686 5687 5687 5688 5690 5691 5693 5695 5697 5698 5700 5701 5701 5702 5703 5703 5703 5705 5705 5706 5707 5708 5708 5708 5709
5684 5682 5679 5677 5675 5673 5671 5669 5667 5666 5665 5664 5663 5663 5663 5663 5663 5664 5664 5664 5664 5665 5665 5665 5665 5664 5663 5664 5664 5663 5663 5663 5663 5662 5661 5660 5661 5661 5663 5663 5664 5666 5668 5671 5672 5674 5677 5678 5679 5681 5682 5682 5683 5685 5686 5688 5690 5691 5693 5694 5696 5696 5696 5697 5697 5697 5699 5700 5700 5701 5702 5702 5703 5703
5676 5674 5671 5669 5666 5664 5662 5660 5658 5656 5655 5655 5654 5654 5654 5655 5655 5656 5657 5657 5657 5657 5658 5658 5658 5658 5657 5657 5658 5658 5657 5658 5658 5657 5656 5656 5656 5656 5657 5658 5660 5661 5663 5665 5667 5669 5672 5673 5675 5677 5678 5679 5679 5680 5682 5683 5684 5686 5687 5688 5689 5690 5690 5691 5690 5691 5692 5693 5694 5695 5695 5696 5697 5697
5668 5665 5663 5660 5657 5655 5653 5651 5649 5648 5647 5646 5646 5646 5646 5646 5647 5648 5649 5649 5649 5650 5651 5651 5652 5652 5651 5651 5652 5652 5652 5652 5652 5652 5652 5651 5651 5651 5651 5653 5655 5656 5658 5660 5662 5664 5667 5668 5670 5671 5673 5674 5674 5675 5677 5678 5679 5680 5681 5681 5682 5684 5684 5684 5684 5685 5686 5687 5688 5689 5689 5689 5690 5689
5660 5657 5654 5651 5648 5645 5643 5641 5640 5638 5637 5637 5637 5637 5637 5638 5639 5641 5641 5642 5642 5643 5643 5644 5645 5645 5645 5645 5646 5646 5646 5646 5647 5647 5647 5646 5646 5646 5646 5647 5649 5651 5652 5654 5656 5658 5661 5663 5664 5665 5667 5668 5669 5670 5671 5672 5673 5675 5676 5675 5676 5677 5677 5677 5677 5678 5679 5680 5681 5682 5682 5682 5682 5682
5652 5649 5645 5642 5638 5636 5633 5631 5629 5628 5628 5628 5628 5628 5629 5630 5632 5633 5634 5634 5635 5636 5637 5637 5638 5639 5639 5639 5640 5640 5640 5640 5641 5642 5642 5641 5641 5641 5641 5642 5643 5645 5646 5648 5650 5652 5654 5656 5658 5660 5662 5663 5663 5664 5666 5666 5666 5668 5669 5669 5670 5670 5670 5670 5670 5671 5673 5673 5674 5674 5674 5675 5675 5674
5645 5641 5637 5633 5629 5626 5624 5622 5620 5618 5618 5618 5619 5620 5621 5623 5624 5625 5626 5627 5628 5629 5630 5631 5632 5633 5633 5633 5634 5634 5634 5635 5635 5636 5637 5636 5636 5636 5636 5636 5638 5639 5640 5642 5645 5646 5648 5650 5652 5654 5656 5657 5657 5659 5661 5661 5660 5660 5661 5663 5664 5663 5663 5664 5664 5665 5666 5666 5666 5667 5667 5667 5667 5667
5639 5634 5630 5625 5621 5618 5615 5613 5612 5610 5610 5610 5611 5611 5613 5614 5616 5617 5618 5620 5621 5622 5624 5625 5626 5627 5627 5628 5628 5629 5629 5629 5629 5630 5631 5631 5631 5631 5631 5631 5632 5634 5635 5637 5638 5640 5641 5643 5646 5648 5650 5652 5653 5654 5656 5656 5654 5653 5654 5656 5657 5657 5657 5658 5659 5659 5659 5659 5658 5659 5660 5661 5661 5661
5634 5629 5624 5619 5615 5611 5609 5607 5606 5605 5604 5605 5604 5605 5606 5607 5608 5610 5612 5613 5614 5616 5617 5618 5620 5621 5621 5622 5623 5623 5624 5624 5624 5625 5626 5626 5627 5627 5627 5627 5627 5629 5631 5632 5633 5634 5634 5636 5639 5641 5643 5645 5646 5647 5649 5651 5649 5647 5647 5649 5651 5652 5652 5653 5652 5652 5652 5652 5652 5652 5654 5655 5656 5656
5631 5625 5620 5615 5611 5608 5605 5603 5602 5601 5601 5601 5600 5600 5601 5601 5602 5604 5606 5607 5608 5610 5611 5612 5614 5615 5616 5616 5617 5618 5619 5619 5619 5619 5620 5621 5621 5622 5622 5622 5623 5624 5625 5625 5627 5628 5628 5630 5633 5635 5636 5638 5639 5639 5642 5644 5644 5642 5643 5645 5647 5647 5647 5647 5647 5647 5647 5648 5648 5648 5649 5650 5650 5651
5628 5622 5617 5612 5608 5605 5603 5602 5601 5600 5599 5599 5598 5598 5598 5598 5598 5599 5600 5602 5603 5604 5606 5607 5608 5609 5610 5611 5612 5612 5613 5614 5614 5614 5615 5615 5616 5617 5617 5617 5618 5619 5619 5620 5621 5622 5623 5624 5626 5627 5629 5630 5631 5632 5635 5637 5638 5639 5640 5641 5642 5642 5642 5643 5643 5643 5643 5643 5643 5643 5644 5644 5645 5646
5626 5621 5616 5611 5607 5605 5602 5601 5600 5599 5598 5597 5596 5596 5596 5595 5595 5595 5596 5597 5598 5599 5601 5602 5603 5604 5605 5606 5607 5607 5608 5609 5609 5609 5610 5610 5611 5612 5612 5612 5613 5614 5615 5615 5616 5617 5618 5618 5619 5621 5623 5625 5625 5626 5628 5630 5631 5633 5634 5635 5637 5637 5637 5638 5638 5638 5638 5638 5637 5637 5638 5639 5640 5641
5625 5620 5616 5611 5607 5604 5602 5600 5599 5598 5596 5596 5595 5594 5594 5593 5592 5592 5593 5594 5594 5595 5596 5597 5598 5600 5601 5602 5602 5602 5603 5604 5604 5605 5605 5605 5606 5607 5608 5608 5608 5609 5610 5610 5611 5612 5613 5614 5614 5615 5617 5619 5620 5620 5622 5623 5624 5626 5628 5629 5631 5631 5632 5632 5633 5633 5633 5633 5632 5632 5633 5635 5635 5636
5626 5622 5617 5612 5608 5605 5602 5600 5598 5597 5595 5595 5594 5593 5592 5592 5591 5591 5590 5591 5591 5592 5593 5594 5594 5595 5596 5597 5598 5598 5598 5599 5599 5600 5600 5601 5601 5602 5603 5603 5603 5604 5604 5605 5606 5606 5608 5608 5609 5610 5612 5613 5614 5614 5615 5617 5618 5619 5621 5623 5624 5625 5626 5626 5627 5627 5627 5627 5627 5627 5629 5630 5630 5630
5627 5623 5618 5614 5609 5605 5602 5600 5598 5596 5594 5593 5592 5592 5591 5590 5590 5589 5589 5589 5589 5589 5590 5591 5591 5592 5593 5593 5594 5594 5594 5595 5595 5595 5596 5596 5597 5597 5597 5598 5599 5599 5600 5601 5601 5601 5602 5602 5603 5604 5605 5605 5606 5606 5608 5609 5610 5611 5613 5615 5616 5618 5619 5619 5620 5621 5621 5621 5622 5622 5623 5624 5623 5623
5626 5622 5618 5614 5610 5607 5603 5600 5597 5595 5594 5593 5591 5590 5590 5589 5588 5587 5587 5587 5587 5587 5587 5588 5589 5589 5590 5590 5590 5590 5591 5591 5591 5592 5592 5592 5592 5593 5593 5593 5594 5594 5595 5596 5596 5596 5597 5597 5597 5598 5598 5598 5599 5600 5601 5602 5603 5604 5606 5608 5609 5611 5612 5613 5614 5614 5615 5616 5616 5617 5617 5617 5617 5616
5625 5622 5618 5615 5612 5609 5606 5602 5599 5596 5594 5592 5591 5589 5588 5588 5587 5586 5585 5585 5585 5585 5585 5586 5586 5587 5587 5587 5587 5587 5587 5588 5588 5588 5589 5589 5589 5589 5589 5589 5590 5590 5591 5592 5592 5592 5592 5592 5592 5592 5592 5593 5594 5595 5595 5595 5597 5598 5600 5602 5603 5604 5606 5607 5608 5608 5609 5610 5610 5611 5611 5611 5611 5611
5625 5621 5619 5616 5613 5611 5608 5605 5602 5599 5596 5593 5591 5589 5588 5587 5586 5585 5584 5583 5583 5583 5583 5583 5584 5584 5585 5585 5585 5585 5585 5585 5585 5586 5586 5586 5586 5587 5587 5586 5586 5587 5587 5587 5587 5587 5587 5587 5587 5587 5588 5589 5590 5590 5590 5591 5593 5594 5595 5597 5598 5600 5601 5602 5603 5603 5604 5605 5605 5606 5606 5606 5606 5606
5625 5622 5620 5617 5614 5612 5609 5606 5603 5601 5598 5595 5592 5590 5588 5587 5585 5584 5583 5582 5582 5581 5581 5581 5581 5582 5582 5582 5582 5582 5583 5582 5583 5583 5583 5584 5584 5584 5584 5584 5584 5584 5584 5584 5584 5583 5583 5583 5584 5585 5586 5587 5587 5588 5589 5590 5590 5591 5592 5593 5595 5596 5598 5598 5599 5600 5600 5601 5601 5601 5600 5600 5600 5599
5626 5623 5621 5618 5616 5613 5610 5608 5605 5602 5600 5597 5595 5592 5590 5588 5586 5584 5583 5582 5581 5580 5580 5579 5579 5579 5580 5580 5580 5580 5580 5580 5580 5580 5580 5581 5581 5582 5582 5582 5582 5582 5582 5582 5582 5581 5581 5582 5582 5583 5584 5584 5585 5586 5587 5588 5588 5589 5590 5591 5592 5593 5594 5595 5595 5595 5595 5595 5595 5594 5593 5593 5592 5591
5627 5624 5622 5619 5617 5614 5612 5609 5606 5604 5601 5599 5597 5595 5593 5591 5588 5586 5584 5582 5581 5580 5579 5578 5578 5578 5578 5578 5578 5578 5578 5578 5578 5578 5578 5578 5579 5579 5580 5580 5580 5580 5580 5580 5580 5580 5580 5580 5581 5581 5581 5582 5582 5583 5584 5585 5585 5586 5586 5587 5588 5589 5589 5589 5589 5589 5589 5588 5588 5587 5587 5586 5585 5585
5627 5625 5623 5620 5618 5615 5613 5610 5608 5605 5603 5601 5599 5596 5594 5592 5590 5588 5586 5584 5583 5581 5580 5579 5578 5577 5576 5576 5576 5576 5576 5576 5576 5576 5576 5576 5576 5577 5577 5578 5578 5578 5578 5578 5579 5579 5579 5579 5579 5579 5580 5580 5580 5581 5581 5582 5582 5582 5583 5583 5583 5584 5584 5584 5583 5583 5583 5583 5582 5582 5581 5581 5580 5579
5627 5625 5623 5621 5618 5616 5613 5611 5609 5606 5604 5602 5600 5598 5596 5594 5592 5590 5588 5587 5585 5583 5582 5580 5579 5578 5577 5576 5575 5575 5574 5574 5574 5573 5573 5574 5574 5574 5575 5575 5576 5576 5576 5576 5576 5576 5576 5577 5577 5577 5578 5578 5578 5578 5578 5578 5579 5579 5579 5579 5579 5579 5579 5579 5578 5578 5578 5577 5577 5576 5576 5575 5575 5574
5627 5625 5623 5621 5618 5616 5614 5611 5609 5607 5605 5603 5601 5599 5597 5595 5593 5591 5590 5588 5587 5585 5584 5582 5581 5580 5578 5577 5576 5575 5574 5573 5573 5572 5572 5572 5572 5572 5572 5572 5573 5573 5573 5573 5573 5573 5573 5573 5573 5573 5573 5573 5573 5574 5574 5574 5574 5574 5574 5574 5574 5574 5574 5573 5573 5573 5573 5572 5572 5571 5571 5570 5570 5569
5627 5625 5623 5621 5619 5616 5614 5612 5610 5607 5605 5603 5601 5599 5598 5596 5594 5593 5591 5590 5588 5586 5585 5584 5582 5581 5580 5579 5578 5577 5576 5575 5574 5573 5572 5572 5571 5571 5570 5570 5570 5570 5570 5570 5570 5570 5570 5570 5569 5569 5569 5569 5569 5569 5569 5569 5569 5569 5569 5570 5570 5570 5569 5569 5569 5568 5568 5567 5567 5566 5566 5565 5564 5564
5627 5625 5623 5621 5619 5617 5615 5612 5610 5608 5606 5604 5602 5600 5598 5597 5595 5593 5592 5590 5589 5588 5586 5585 5584 5583 5581 5580 5579 5578 5577 5576 5575 5574 5574 5573 5572 5571 5571 5570 5569 5569 5569 5568 5568 5568 5568 5568 5567 5567 5567 5567 5567 5566 5566 5566 5566 5566 5566 5566 5566 5566 5565 5565 5564 5564 5563 5563 5562 5561 5561 5560 5559 5559
5627 5625 5623 5621 5619 5617 5615 5613 5611 5609 5607 5604 5602 5601 5599 5597 5595 5594 5592 5591 5589 5588 5587 5586 5585 5584 5582 5581 5580 5579 5578 5577 5576 5575 5575 5574 5573 5572 5572 5571 5570 5569 5569 5568 5568 5567 5567 5567 5566 5566 5566 5566 5566 5565 5565 5565 5564 5564 5564 5563 5563 5562 5562 5561 5560 5560 5559 5558 5558 5557 5556 5556 5555 5554
5626 5625 5623 5621 5619 5617 5615 5613 5611 5609 5607 5605 5603 5601 5599 5597 5596 5594 5592 5591 5590 5588 5587 5586 5585 5584 5583 5582 5581 5580 5579 5578 5577 5576 5575 5574 5573 5573 5572 5571 5571 5570 5569 5569 5568 5567 5567 5566 5566 5565 5565 5564 5564 5564 5563 5563 5563 5562 5562 5561 5560 5560 5559 5558 5557 5556 5556 5555 5554 5554 5553 5552 5551 5550
5626 5624 5622 5621 5619 5617 5615 5614 5612 5610 5608 5606 5604 5602 5600 5598 5596 5595 5593 5591 5590 5589 5587 5586 5585 5584 5582 5581 5580 5580 5579 5578 5577 5576 5575 5574 5573 5572 5571 5571 5570 5569 5569 5568 5568 5567 5566 5566 5565 5564 5564 5563 5562 5562 5561 5561 5560 5560 5559 5558 5558 5557 5556 5556 5555 5554 5554 5553 5552 5551 5551 5550 5549 5548